This is the latest recevied weather packets stored in our database for station/object dl1wer-13. If no packets are shown the sender has not sent any weather packets the latest 10 day(s).
| Time | Temp. | Humidity | Pressure | Rain* | Wind** | Luminosity | Snow |
|---|---|---|---|---|---|---|---|
| 1777873220 | 12.78° C | 70% | 1041.4 hPa | 0 mm | - | - | - |
| 1777872620 | 12.78° C | 70% | 1041.2 hPa | 0 mm | - | - | - |
| 1777872019 | 13.33° C | 68% | 1041.1 hPa | 0 mm | - | - | - |
| 1777871420 | 13.33° C | 72% | 1041 hPa | 0 mm | - | - | - |
| 1777870820 | 12.22° C | 76% | 1041 hPa | 0 mm | - | - | - |
| 1777870220 | 11.67° C | 79% | 1041.3 hPa | 0 mm | - | - | - |
| 1777869619 | 10.56° C | 79% | 1041.3 hPa | 0 mm | - | - | - |
| 1777869021 | 10.56° C | 80% | 1041 hPa | 0 mm | - | - | - |
| 1777868419 | 10° C | 79% | 1041.2 hPa | 0 mm | - | - | - |
| 1777867820 | 10° C | 78% | 1041.3 hPa | 0 mm | - | - | - |
| 1777867220 | 10.56° C | 78% | 1041.2 hPa | 0 mm | - | - | - |
| 1777866620 | 10.56° C | 78% | 1040.9 hPa | 0 mm | - | - | - |
| 1777866020 | 10.56° C | 77% | 1041.2 hPa | 0 mm | - | - | - |
| 1777865420 | 11.11° C | 77% | 1041.2 hPa | 0 mm | - | - | - |
| 1777864820 | 11.11° C | 76% | 1041.2 hPa | 0 mm | - | - | - |
| 1777864220 | 11.11° C | 76% | 1041.5 hPa | 0 mm | - | - | - |
| 1777863620 | 11.11° C | 76% | 1041.5 hPa | 0 mm | - | - | - |
| 1777863019 | 11.11° C | 76% | 1041.4 hPa | 0 mm | - | - | - |
| 1777862419 | 11.11° C | 76% | 1041.2 hPa | 0 mm | - | - | - |
| 1777861819 | 11.67° C | 76% | 1041.3 hPa | 0 mm | - | - | - |
| 1777861220 | 11.11° C | 75% | 1041.4 hPa | 0 mm | - | - | - |
| 1777860620 | 11.67° C | 75% | 1041.5 hPa | 0 mm | - | - | - |
| 1777860020 | 11.67° C | 74% | 1041.3 hPa | 0 mm | - | - | - |
| 1777859419 | 11.11° C | 74% | 1041.7 hPa | 0 mm | - | - | - |
| 1777858819 | 11.11° C | 75% | 1041.5 hPa | 0 mm | - | - | - |
* Rain latest hour (hover to see other rain measurements)
** Current wind speed in m/s (hover to see current wind gust speed)